| time (UTC) | temp F | wind direction | speed MPH | gust MPH | rain 1hr in | rain 24hr in | rain mn in | humidity % | barometer mb |
| 20260504044601 | 53 | 24 | 6.0 | 15.0 | 0.00 | 0.00 | 0.00 | 40 | 1006.0 |
| 20260504043056 | 54 | 21 | 7.0 | 16.0 | 0.00 | 0.00 | 0.00 | 42 | 1005.7 |
| 20260504041554 | 55 | 27 | 6.0 | 15.0 | 0.00 | 0.00 | 0.00 | 43 | 1005.0 |
| 20260504040104 | 54 | 25 | 2.0 | 10.0 | 0.00 | 0.00 | 0.00 | 43 | 1004.4 |
| 20260504034611 | 54 | 17 | 0.0 | 3.0 | 0.00 | 0.00 | 0.00 | 42 | 1003.7 |
| 20260504033050 | 54 | 18 | 0.0 | 3.0 | 0.00 | 0.00 | 0.00 | 42 | 1003.2 |
| 20260504031550 | 55 | 18 | 0.0 | 2.0 | 0.00 | 0.00 | 0.00 | 42 | 1003.1 |
| 20260504030113 | 56 | 18 | 0.0 | 5.0 | 0.00 | 0.00 | 0.00 | 40 | 1003.0 |
| 20260504024555 | 57 | 17 | 3.0 | 6.0 | 0.00 | 0.00 | 0.00 | 38 | 1002.8 |
| 20260504023049 | 59 | 35 | 3.0 | 7.0 | 0.00 | 0.00 | 0.00 | 36 | 1002.7 |
| 20260504021551 | 61 | 41 | 4.0 | 11.0 | 0.00 | 0.00 | 0.00 | 34 | 1002.5 |
| 20260504020047 | 64 | 41 | 5.0 | 10.0 | 0.00 | 0.00 | 0.00 | 31 | 1002.4 |
| 20260504014550 | 65 | 38 | 3.0 | 13.0 | 0.00 | 0.00 | 0.00 | 29 | 1002.3 |
| 20260504013052 | 67 | 22 | 7.0 | 17.0 | 0.00 | 0.00 | 0.00 | 24 | 1002.2 |
| 20260504011546 | 70 | 28 | 8.0 | 13.0 | 0.00 | 0.00 | 0.00 | 24 | 1002.2 |
| 20260504010044 | 71 | 24 | 1.0 | 10.0 | 0.00 | 0.00 | 0.00 | 21 | 1002.1 |
| 20260504004544 | 72 | 350 | 2.0 | 10.0 | 0.00 | 0.00 | 0.00 | 21 | 1002.3 |
| 20260504003043 | 71 | 355 | 2.0 | 11.0 | 0.00 | 0.00 | 0.00 | 20 | 1002.4 |
| 20260504001557 | 72 | 360 | 3.0 | 12.0 | 0.00 | 0.00 | 0.00 | 19 | 1002.6 |
| 20260504000039 | 72 | 20 | 5.0 | 13.0 | 0.00 | 0.00 | 0.00 | 19 | 1002.8 |
| 20260503234538 | 72 | 360 | 6.0 | 13.0 | 0.00 | 0.00 | 0.00 | 20 | 1002.9 |
| 20260503233039 | 72 | 360 | 3.0 | 15.0 | 0.00 | 0.00 | 0.00 | 21 | 1002.9 |
| 20260503231537 | 72 | 323 | 5.0 | 16.0 | 0.00 | 0.00 | 0.00 | 22 | 1003.0 |
| 20260503230036 | 72 | 333 | 2.0 | 19.0 | 0.00 | 0.00 | 0.00 | 21 | 1003.1 |
| 20260503224534 | 72 | 318 | 6.0 | 16.0 | 0.00 | 0.00 | 0.00 | 20 | 1003.4 |
| 20260503223032 | 72 | 331 | 4.0 | 19.0 | 0.00 | 0.00 | 0.00 | 21 | 1003.5 |
| 20260503221531 | 72 | 328 | 6.0 | 18.0 | 0.00 | 0.00 | 0.00 | 21 | 1003.6 |
| 20260503220030 | 73 | 332 | 2.0 | 20.0 | 0.00 | 0.00 | 0.00 | 21 | 1003.8 |
| 20260503214528 | 72 | 311 | 6.0 | 19.0 | 0.00 | 0.00 | 0.00 | 23 | 1004.0 |
| 20260503213025 | 72 | 305 | 6.0 | 17.0 | 0.00 | 0.00 | 0.00 | 22 | 1004.4 |
| 20260503211532 | 71 | 309 | 9.0 | 19.0 | 0.00 | 0.00 | 0.00 | 24 | 1004.5 |
| 20260503210021 | 71 | 321 | 9.0 | 18.0 | 0.00 | 0.00 | 0.00 | 22 | 1004.7 |
| 20260503204520 | 71 | 326 | 12.0 | 19.0 | 0.00 | 0.00 | 0.00 | 22 | 1005.1 |
| 20260503203018 | 71 | 10 | 4.0 | 12.0 | 0.00 | 0.00 | 0.00 | 23 | 1005.2 |
| 20260503201516 | 70 | 347 | 5.0 | 18.0 | 0.00 | 0.00 | 0.00 | 24 | 1005.4 |
| 20260503200014 | 70 | 314 | 11.0 | 21.0 | 0.00 | 0.00 | 0.00 | 22 | 1005.6 |
| 20260503194511 | 71 | 316 | 5.0 | 17.0 | 0.00 | 0.00 | 0.00 | 23 | 1005.9 |
| 20260503193007 | 70 | 5 | 4.0 | 17.0 | 0.00 | 0.00 | 0.00 | 24 | 1006.3 |
| 20260503191507 | 70 | 345 | 3.0 | 19.0 | 0.00 | 0.00 | 0.00 | 23 | 1006.5 |
| 20260503190012 | 69 | 339 | 2.0 | 13.0 | 0.00 | 0.00 | 0.00 | 28 | 1006.7 |
| 20260503184506 | 68 | 330 | 2.0 | 14.0 | 0.00 | 0.00 | 0.00 | 28 | 1007.0 |
| 20260503183111 | 67 | 360 | 2.0 | 14.0 | 0.00 | 0.00 | 0.00 | 26 | 1007.3 |
| 20260503181558 | 67 | 301 | 2.0 | 13.0 | 0.00 | 0.00 | 0.00 | 25 | 1007.4 |
| 20260503180058 | 66 | 334 | 2.0 | 11.0 | 0.00 | 0.00 | 0.00 | 25 | 1007.7 |
| 20260503174552 | 67 | 324 | 7.0 | 13.0 | 0.00 | 0.00 | 0.00 | 25 | 1007.9 |
| 20260503173109 | 66 | 319 | 3.0 | 9.0 | 0.00 | 0.00 | 0.00 | 26 | 1008.2 |
| 20260503171551 | 67 | 343 | 3.0 | 12.0 | 0.00 | 0.00 | 0.00 | 28 | 1008.4 |
| 20260503130106 | 55 | 312 | 3.0 | 11.0 | 0.00 | 0.00 | 0.00 | 47 | 1008.9 |
| 20260503081534 | 49 | 230 | 0.0 | 5.0 | 0.00 | 0.00 | 0.00 | 63 | 1011.6 |